Regional Weather Roundup
Issued by NWS

Home | Current Version | Previous Version | Graphics & Text | Print | Product List | Glossary On
Versions: 1 2 3 4 5 6 7 8 9 10 11 12 13 14 15 16 17 18 19 20 21 22 23 24 25 26 27
000
ASUS45 KBOU 302107
RWRCO

WEATHER ROUNDUP FOR COLORADO
NATIONAL WEATHER SERVICE DENVER/BOULDER CO
300 PM MDT SAT JUL 30 2016

NOTE: "FAIR" INDICATES FEW OR NO CLOUDS BELOW 12000 FEET WITH NO
SIGNIFICANT WEATHER AND/OR OBSTRUCTIONS TO VISIBILITY.

COZ001>005-013-030-031-302200-
...NORTHWEST COLORADO...

CITY           SKY/WX    TMP DP  RH WIND       PRES   REMARKS
CRAIG          FAIR      92  28  10 W12G18    30.08F
HAYDEN         FAIR      90  32  12 NW10G20   30.12F
MEEKER         FAIR      88  31  13 SW8       30.10F
MOUNT WERNER   NOT AVBL
STEAMBOAT SPGS FAIR      86  36  16 SW9       30.14F
WALDEN         FAIR      79  30  17 N13       30.27S
$$

COZ006>008-011-302200-
...WEST CENTRAL VALLEYS...

CITY           SKY/WX    TMP DP  RH WIND       PRES   REMARKS
GRAND JUNCTION FAIR      94  37  13 VRB5      30.01F
MONTROSE       FAIR      85  40  20 N8        30.12F
EAGLE          SUNNY     88  30  12 CALM      30.12F
RIFLE          FAIR      94  33  11 W14G22    30.03F
DELTA          NOT AVBL
NUCLA          NOT AVBL
$$

COZ017>023-064>068-302200-
...SOUTHWEST COLORADO...

CITY           SKY/WX    TMP DP  RH WIND       PRES   REMARKS
DURANGO        FAIR      90  40  17 MISG      30.14F
CORTEZ         FAIR      93  43  17 W7        30.08F
PAGOSA SPRINGS FAIR      84  33  16 N8        30.26S
TELLURIDE      PTSUNNY   76  36  23 CALM      30.38F
WOLF CREEK PAS PTSUNNY   54  36  50 N10       30.66S
$$

COZ009-010-012-014-032>034-037-058>063-302200-
...CENTRAL COLORADO...

CITY           SKY/WX    TMP DP  RH WIND       PRES   REMARKS
ASPEN            N/A     83  31  15 S5        30.23F
BUENA VISTA    FAIR      80  43  27 E9        30.23F THUNDER
COPPER MTN     PTSUNNY   64  21  19 NW16      30.61F
BERTHOUD PASS  PTSUNNY   57  43  58 N24G32    30.62F
COTTONWOOD PAS FAIR      77  27  15 W5G16     30.40F THUNDER
GUNNISON       FAIR      79  39  24 SW13      30.27F
KREMMLING      FAIR      90  14   6 W8G16     30.20F
LEADVILLE      FAIR      75  22  13 N10G21    30.40F
MONARCH PASS   FAIR      64  34  32 MISG      30.70S
SALIDA         NOT AVBL
SUNLIGHT       FAIR      75  37  25 MISG      30.53F
WILKERSON PASS FAIR      72  27  18 SW5       30.55F
$$

COZ069>075-302200-
...SAN LUIS VALLEY/SANGRE DE CRISTO MOUNTAINS...

CITY           SKY/WX    TMP DP  RH WIND       PRES   REMARKS
ALAMOSA          N/A     80  40  23 NW15      30.24R
LA VETA PASS   FAIR      81  34  18 S9G20     30.44F THUNDER
SAGUACHE       TSTM      77  45  31 S7        30.24F
$$

COZ035-036-038>040-302200-
...NORTHERN COLORADO FRONT RANGE...

CITY           SKY/WX    TMP DP  RH WIND       PRES   REMARKS
DENVER INTL AP FAIR      92  46  20 NE15G22   30.01F
DMNS CITY PARK   N/A     89  42  19 E14       30.00F
AURORA         MOSUNNY   92  43  18 NE12      30.03F
FRONT RANGE AP MOSUNNY   93  41  16 N12G21    30.03F
ERIE MUNI ARPT FAIR      91  45  20 E5        29.99F
BOULDER MUN AP FAIR      88  48  25 S3        30.01S
CENTENNIAL     FAIR      91  36  14 N14       30.05F
BROOMFIELD     MOSUNNY   88  50  27 NE3       30.05F
LONGMONT       NOT AVBL
$$

COZ041-046-047-076>085-087-088-302200-
...PIKES PEAK/PALMER DIVIDE AND SOUTHERN FOOTHILLS...

CITY           SKY/WX    TMP DP  RH WIND       PRES   REMARKS
COLO. SPRINGS  PTSUNNY   86  46  24 S12       30.09F THUNDER
A. F. ACADEMY  DRIZZLE   83  47  27 SE8       30.10F
SCHRIEVER AFB  NOT AVBL
ELLICOTT       NOT AVBL
FALCON         FAIR      79  46  31 CALM      30.16S
FORT CARSON    PTSUNNY   82  50  32 VRB5      30.05S
LIMON          FAIR      93  39  15 NW8       30.01F
MONUMENT HILL  FAIR      82  36  18 NE14G20   30.17S
TRINIDAD       NOT AVBL
$$

COZ042>045-048>051-090-091-302200-
...NORTHEAST COLORADO...

CITY           SKY/WX    TMP DP  RH WIND       PRES   REMARKS
GREELEY ARPT   FAIR      88  64  45 SE9       29.99F
AKRON          FAIR      87  57  35 SE16G25   29.99F
BURLINGTON     FAIR      88  59  37 SE17G24   29.97F
WRAY           NOT AVBL
STERLING       NOT AVBL
HOLYOKE        NOT AVBL
FORT MORGAN    NOT AVBL
$$

COZ086-089-092>099-302200-
...SOUTHEAST COLORADO...

CITY           SKY/WX    TMP DP  RH WIND       PRES   REMARKS
PUEBLO         FAIR      95  48  20 VRB3      29.93F
LA JUNTA       FAIR      95  59  30 NE8       29.92F
LAMAR          FAIR      94  59  31 E10       29.88F
SPRINGFIELD      N/A     93  56  28 S17G24    29.95F
$$




USA.gov is the U.S. government's official web portal to all federal, state and local government web resources and services.